Location: Gad�tanya
(48.0500°N, 20.8500°E)
Time: 23:08:47
(UTC+00:00)

CZ-4C R/B - Pass Details

Date: 05 July 2020
Orbit: 632 x 1370 km, 63.4° (Epoch: 05 August)

Event Time Altitude Azimuth Distance (km) Brightness Sun altitude
Rises 21:37:40 0° 316° (NW) 3,642 6.6 -17.8°
Reaches altitude 10° 21:40:19 10° 325° (NW) 2,805 6.0 -18.0°
Maximum altitude 21:46:30 36° 31° (NNE) 1,728 4.2 -18.2°
Drops below altitude 10° 21:53:39 10° 96° (E) 3,261 5.0 -18.5°
Sets 21:56:57 0° 105° (ESE) 4,304 5.6 -18.6°
